DW6016 Weather Reports


Display with metric or nautical units.
time (UTC)temp
F
wind
direction
speed
MPH
gust
MPH
rain 1hr
in
rain 24hr
in
rain mn
in
humidity
%
barometer
mb
20260505140541 55 288 0.0 0.0 0.00 0.00 0.00 91 1016.6
20260505124955 54 290 0.0 0.0 0.00 0.00 0.00 91 1015.9
20260505124452 54 289 0.0 0.0 0.00 0.00 0.00 91 1016.3
20260505123948 54 289 0.0 0.0 0.00 0.00 0.00 91 1016.1
20260505123444 54 291 0.0 0.0 0.00 0.00 0.00 92 1016.1
20260505122940 54 291 0.0 0.0 0.00 0.00 0.00 92 1016.2
20260505122438 54 291 0.0 0.0 0.00 0.00 0.00 92 1016.1
20260505121934 54 291 0.0 0.0 0.00 0.00 0.00 92 1016.2
20260505121432 54 291 0.0 0.0 0.00 0.00 0.00 92 1016.1
20260505120927 54 291 0.0 0.0 0.00 0.00 0.00 92 1016.0
20260505120424 54 291 0.0 0.0 0.00 0.00 0.00 91 1016.0
20260505115923 54 291 0.0 0.0 0.00 0.00 0.00 91 1016.0
20260505115420 54 291 0.0 0.0 0.00 0.00 0.00 92 1015.9
20260505114918 54 291 0.0 0.0 0.00 0.00 0.00 92 1016.0
20260505114414 54 291 0.0 0.0 0.00 0.00 0.00 93 1016.3
20260505113910 54 291 0.0 0.0 0.00 0.00 0.00 93 1016.1
20260505113407 54 291 0.0 0.0 0.00 0.00 0.00 93 1015.9
20260505112903 54 291 0.0 0.0 0.00 0.00 0.00 93 1015.8
20260505112401 53 291 0.0 0.0 0.00 0.00 0.00 94 1016.0
20260505111856 53 291 0.0 0.0 0.00 0.00 0.00 94 1016.0
20260505111351 53 291 0.0 0.0 0.00 0.00 0.00 94 1016.0
20260505110847 53 291 0.0 0.0 0.00 0.00 0.00 95 1016.0
20260505110345 53 291 0.0 0.0 0.00 0.00 0.00 95 1015.9
20260505101815 52 291 0.0 0.0 0.00 0.00 0.00 99 1015.6
20260505101310 52 291 0.0 0.0 0.00 0.00 0.00 99 1015.3
20260505100806 51 291 0.0 0.0 0.00 0.00 0.00 98 1015.4
20260505100303 51 291 0.0 0.0 0.00 0.00 0.00 98 1015.4
20260505095759 51 291 0.0 0.0 0.00 0.00 0.00 98 1015.8
20260505095257 51 291 0.0 0.0 0.00 0.00 0.00 98 1015.7
20260505094752 51 291 0.0 0.0 0.00 0.00 0.00 98 1015.4
20260505094249 51 291 0.0 0.0 0.00 0.00 0.00 97 1015.5
20260505093745 51 291 0.0 0.0 0.00 0.00 0.00 97 1015.5
20260505093243 51 291 0.0 0.0 0.00 0.00 0.00 97 1015.4
20260505092739 51 291 0.0 0.0 0.00 0.00 0.00 97 1015.4
20260505092238 51 291 0.0 0.0 0.00 0.00 0.00 96 1015.4
20260505091735 51 291 0.0 0.0 0.00 0.00 0.00 96 1015.4
20260505091233 51 291 0.0 0.0 0.00 0.00 0.00 95 1015.2
20260505090730 52 291 0.0 0.0 0.00 0.00 0.00 94 1015.3
20260505090229 52 291 0.0 0.0 0.00 0.00 0.00 94 1015.3
20260505085725 52 291 0.0 0.0 0.00 0.00 0.00 94 1014.9
20260505085224 53 291 0.0 0.0 0.00 0.00 0.00 93 1015.1
20260505084721 53 291 0.0 0.0 0.00 0.00 0.00 93 1015.3
20260505084220 53 291 0.0 0.0 0.00 0.00 0.00 92 1015.4
20260505083716 53 291 0.0 0.0 0.00 0.00 0.00 92 1015.0
20260505083213 53 291 0.0 0.0 0.00 0.00 0.00 91 1015.1
20260505082709 54 291 0.0 0.0 0.00 0.00 0.00 91 1015.1
20260505082206 54 284 0.0 0.0 0.00 0.00 0.00 91 1014.9
20260505081702 54 284 0.0 0.0 0.00 0.00 0.00 91 1015.0
20260505081200 54 284 0.0 0.0 0.00 0.00 0.00 91 1015.2
20260505080656 54 284 0.0 0.0 0.00 0.00 0.00 91 1014.8
20260505080152 54 284 0.0 0.0 0.00 0.00 0.00 91 1014.7
20260505075648 54 284 0.0 0.0 0.00 0.00 0.00 91 1014.9
20260505075145 54 284 0.0 0.0 0.00 0.00 0.00 91 1014.7
20260505074642 54 284 0.0 0.0 0.00 0.00 0.00 91 1014.9
20260505074139 55 284 0.0 0.0 0.00 0.00 0.00 91 1014.8
20260505073637 55 272 0.0 0.0 0.00 0.00 0.00 90 1014.4
20260505073135 55 272 0.0 0.0 0.00 0.00 0.00 90 1014.5
20260505072630 55 272 0.0 0.0 0.00 0.00 0.00 89 1014.5
20260505072127 56 272 0.0 0.0 0.00 0.00 0.00 88 1014.5
20260505071623 56 272 0.0 0.0 0.00 0.00 0.00 88 1014.2
20260505071121 56 272 0.0 0.0 0.00 0.00 0.00 87 1014.3
20260505070618 57 272 0.0 0.0 0.00 0.00 0.00 86 1014.2
20260505070114 57 272 0.0 0.0 0.00 0.00 0.00 86 1014.2
20260505065610 57 272 0.0 0.0 0.00 0.00 0.00 86 1014.2
20260505065107 57 276 0.0 0.0 0.00 0.00 0.00 86 1014.1
20260505064604 57 275 1.0 1.0 0.00 0.00 0.00 86 1014.0
20260505064102 57 275 0.0 0.0 0.00 0.00 0.00 85 1014.1
20260505063559 57 276 0.0 0.0 0.00 0.00 0.00 85 1013.7
20260505063055 58 276 0.0 0.0 0.00 0.00 0.00 84 1013.7
20260505062551 58 276 0.0 0.0 0.00 0.00 0.00 84 1014.0
20260505062049 58 276 0.0 0.0 0.00 0.00 0.00 83 1013.7
20260505061546 59 272 0.0 0.0 0.00 0.00 0.00 83 1013.9
20260505061044 59 272 0.0 0.0 0.00 0.00 0.00 82 1013.7
20260505060541 59 277 0.0 0.0 0.00 0.00 0.00 82 1013.5
20260505060037 60 276 0.0 0.0 0.00 0.00 0.00 81 1013.7
20260505055533 60 276 1.0 1.0 0.00 0.00 0.00 81 1013.6
20260505055030 60 284 0.0 0.0 0.00 0.00 0.00 80 1013.6
20260505054527 61 286 1.0 1.0 0.00 0.00 0.00 79 1013.4
20260505054025 61 293 0.0 0.0 0.00 0.00 0.00 80 1013.6
20260505053522 61 314 0.0 0.0 0.00 0.00 0.00 80 1013.2
20260505053019 62 314 0.0 0.0 0.00 0.00 0.00 78 1013.4
20260505052516 62 314 0.0 0.0 0.00 0.00 0.00 78 1013.4
20260505052013 63 290 0.0 0.0 0.00 0.00 0.00 77 1013.2
20260505051510 64 307 0.0 0.0 0.00 0.00 0.00 77 1013.1
20260505051008 64 308 0.0 0.0 0.00 0.00 0.00 75 1013.1
20260505050506 65 304 0.0 0.0 0.00 0.00 0.00 74 1013.0
20260504224642 71 304 0.0 0.0 0.00 0.00 0.00 65 1012.4
20260504224138 71 304 0.0 0.0 0.00 0.00 0.00 65 1012.4
20260504223636 71 307 0.0 1.0 0.00 0.00 0.00 67 1012.5
20260504223131 71 300 0.0 0.0 0.00 0.00 0.00 65 1012.4
20260504222628 71 308 2.0 2.0 0.00 0.00 0.00 67 1012.6
20260504222125 70 294 0.0 1.0 0.00 0.00 0.00 67 1012.4
20260504221622 70 298 2.0 2.0 0.00 0.00 0.00 66 1012.8
20260504221120 70 305 1.0 2.0 0.00 0.00 0.00 65 1012.5
20260504220616 70 306 2.0 2.0 0.00 0.00 0.00 66 1012.7
20260504220114 70 310 1.0 1.0 0.00 0.00 0.00 67 1012.9
20260504215609 70 314 0.0 0.0 0.00 0.00 0.00 70 1012.8
20260504215107 70 288 0.0 0.0 0.00 0.00 0.00 66 1012.9
20260504214603 70 243 1.0 2.0 0.00 0.00 0.00 69 1013.0
20260504214059 69 304 0.0 1.0 0.00 0.00 0.00 68 1013.1
20260504213556 69 315 1.0 1.0 0.00 0.00 0.00 70 1013.2
20260504213053 69 102 1.0 3.0 0.00 0.00 0.00 69 1013.1
20260504212548 69 280 0.0 0.0 0.00 0.00 0.00 68 1013.1
20260504212046 68 300 0.0 0.0 0.00 0.00 0.00 68 1013.3
20260504211543 68 170 1.0 2.0 0.00 0.00 0.00 70 1013.6
20260504211040 68 100 1.0 2.0 0.00 0.00 0.00 72 1013.3
20260504210537 68 108 2.0 3.0 0.00 0.00 0.00 68 1013.7
20260504210033 68 289 2.0 2.0 0.00 0.00 0.00 70 1013.6
20260504205531 68 312 0.0 0.0 0.00 0.00 0.00 69 1013.6
20260504205029 68 321 0.0 0.0 0.00 0.00 0.00 70 1013.7
20260504204527 67 283 1.0 2.0 0.00 0.00 0.00 69 1013.7
20260504204026 66 312 1.0 1.0 0.00 0.00 0.00 72 1014.1
20260504203524 68 314 4.0 6.0 0.00 0.00 0.00 68 1014.0
20260504203021 68 246 0.0 0.0 0.00 0.00 0.00 72 1014.0
20260504202516 67 336 0.0 0.0 0.00 0.00 0.00 70 1014.0
20260504202013 68 285 0.0 1.0 0.00 0.00 0.00 70 1014.2
20260504201510 67 317 0.0 1.0 0.00 0.00 0.00 72 1014.1
20260504201008 66 286 0.0 0.0 0.00 0.00 0.00 72 1014.2
20260504200504 64 301 1.0 1.0 0.00 0.00 0.00 75 1014.2
20260504200001 67 310 3.0 6.0 0.00 0.00 0.00 70 1014.4
20260504195457 67 317 0.0 0.0 0.00 0.00 0.00 69 1014.6
20260504194954 66 315 1.0 1.0 0.00 0.00 0.00 74 1014.4
20260504194450 67 111 3.0 3.0 0.00 0.00 0.00 71 1014.6
20260504193946 65 271 0.0 0.0 0.00 0.00 0.00 74 1014.5
20260504193443 63 304 0.0 1.0 0.00 0.00 0.00 74 1014.3
20260504192942 68 293 0.0 1.0 0.00 0.00 0.00 67 1014.4
20260504192438 67 298 0.0 0.0 0.00 0.00 0.00 71 1014.7
20260504191938 65 290 0.0 0.0 0.00 0.00 0.00 73 1014.5
20260504191435 64 308 1.0 1.0 0.00 0.00 0.00 73 1014.6
20260504190930 62 212 1.0 2.0 0.00 0.00 0.00 79 1014.6
20260504190426 62 122 1.0 1.0 0.00 0.00 0.00 78 1014.9
20260504185923 61 280 1.0 1.0 0.00 0.00 0.00 78 1014.6
20260504185420 62 297 3.0 5.0 0.00 0.00 0.00 78 1014.8
20260504184916 63 302 0.0 2.0 0.00 0.00 0.00 76 1014.8
20260504184412 62 300 0.0 0.0 0.00 0.00 0.00 79 1014.9
20260504183908 61 303 2.0 2.0 0.00 0.00 0.00 78 1014.9
20260504183405 61 304 0.0 1.0 0.00 0.00 0.00 80 1014.7
20260504182903 62 299 1.0 1.0 0.00 0.00 0.00 77 1014.8
20260504182400 62 300 1.0 1.0 0.00 0.00 0.00 78 1014.7
20260504181856 61 313 0.0 0.0 0.00 0.00 0.00 81 1014.8
20260504181354 60 311 0.0 0.0 0.00 0.00 0.00 81 1014.6
20260504180853 60 299 3.0 3.0 0.00 0.00 0.00 80 1014.8
20260504180351 60 310 1.0 2.0 0.00 0.00 0.00 81 1014.7
20260504175849 61 310 2.0 3.0 0.00 0.00 0.00 79 1014.7
20260504175345 60 299 0.0 0.0 0.00 0.00 0.00 83 1014.9
20260504174844 60 305 0.0 1.0 0.00 0.00 0.00 82 1014.6
20260504174341 60 318 0.0 1.0 0.00 0.00 0.00 82 1014.7
20260504173838 59 307 1.0 2.0 0.00 0.00 0.00 82 1014.7
20260504173334 60 314 1.0 2.0 0.00 0.00 0.00 82 1014.6
20260504172831 59 303 0.0 1.0 0.00 0.00 0.00 82 1014.8
20260504172328 59 292 0.0 0.0 0.00 0.00 0.00 83 1014.8
20260504171824 59 308 1.0 1.0 0.00 0.00 0.00 83 1014.7
20260504171321 59 305 1.0 1.0 0.00 0.00 0.00 83 1014.8
20260504170819 59 293 1.0 1.0 0.00 0.00 0.00 84 1014.9
20260504170315 59 314 1.0 1.0 0.00 0.00 0.00 84 1014.5
20260504160233 58 297 0.0 0.0 0.00 0.00 0.00 86 1014.8
20260504150659 56 326 2.0 2.0 0.00 0.00 0.00 88 1014.4
20260504150156 56 290 1.0 1.0 0.00 0.00 0.00 88 1014.3